Regional Weather Roundup
Issued by NWS Goodland, KS

Home | Current Version | Previous Version | Text Only | Print | Product List | Glossary On
Versions: 1 2 3 4 5 6 7 8 9 10 11 12 13 14 15 16 17 18 19 20 21 22 23 24 25 26 27 28 29 30 31 32 33 34 35 36 37 38 39 40 41 42 43 44 45 46 47 48 49 50
000
ASUS43 KGLD 110408
RWRGLD

GOODLAND FORECAST AREA HOURLY WEATHER ROUNDUP
NATIONAL WEATHER SERVICE GOODLAND KS
900 PM MST WED FEB 10 2016

...OFFICIAL OBSERVATIONS...

CITY           SKY/WX    TMP DP  RH WIND       PRES   REMARKS
GOODLAND KS    CLOUDY    41  28  60 NW12      30.10R
HILL CITY KS   CLOUDY    44  31  60 N13       30.05R
IMPERIAL NEB   CLOUDY    41  28  60 NW12      30.08R
MCCOOK NEB     PTCLDY    37  30  75 W5        30.07R
AKRON CO       CLOUDY    39  25  57 NW13      30.14R
BURLINGTON CO  CLOUDY    38  25  59 W9        30.13R
LIMON CO       CLOUDY    37  26  64 NW5       30.18R
$$

...UNOFFICIAL OBSERVATIONS...

CITY           SKY/WX    TMP DP  RH WIND       PRES   REMARKS
COLBY KS       CLEAR     41  34  75 W10       30.08R
GOVE KS          N/A     37  32  82 MISG        N/A
LENORA KS        N/A     41  32  70 MISG        N/A
NORTON KS      CLEAR     39  28  65 N10       30.05
SHARON SPRINGS   N/A     37  30  75 NW5G12      N/A
TRENTON NEB      N/A     39  32  76 MISG        N/A
KIT CARSON CO    N/A     46  28  48 MISG        N/A
YUMA CO          N/A     36  28  73 NW10        N/A
$$



USA.gov is the U.S. government's official web portal to all federal, state and local government web resources and services.